Regional Weather Roundup
Issued by NWS

Home | Current Version | Previous Version | Graphics & Text | Print | Product List | Glossary On
Versions: 1 2 3 4 5 6 7 8 9 10 11 12 13 14 15 16 17 18 19 20 21 22 23 24 25 26 27 28 29 30 31 32 33 34 35 36 37 38 39 40 41 42 43 44 45 46 47 48 49 50
000
ASUS43 KFSD 212102
RWRSD

WEATHER ROUNDUP FOR SOUTH DAKOTA
NATIONAL WEATHER SERVICE SIOUX FALLS SD
400 PM CDT TUE OCT 21 2014

NOTE: "FAIR" INDICATES FEW OR NO CLOUDS BELOW 12,000 FEET WITH NO
SIGNIFICANT WEATHER AND/OR OBSTRUCTIONS TO VISIBILITY.


SDZ001>005-009-010-012>017-212200-
NORTHWEST AND NORTH CENTRAL SOUTH DAKOTA

CITY           SKY/WX    TMP DP  RH WIND       PRES   REMARKS
MOBRIDGE       SUNNY     85  43  22 S25G36    29.69F
$$

SDZ012>016-024>037-041>051-057-063-072>074-212200-
SOUTHWEST AND SOUTH CENTRAL SOUTH DAKOTA

CITY           SKY/WX    TMP DP  RH WIND       PRES   REMARKS
RAPID CTY ARPT SUNNY     81  43  26 S17G28    29.73F
PIERRE         SUNNY     83  39  21 S25G36    29.76F
CUSTER         SUNNY     71  37  28 SW13G18   29.87F
ELLSWORTH AFB  SUNNY     82  42  24 S17       29.73F
PHILIP         SUNNY     83  47  28 S20       29.72F
PINE RIDGE     SUNNY     78  48  34 S17       29.80F
SPEARFISH      FAIR      77  41  27 SW18G26   29.75F
WINNER         FAIR      82  32  16 S24G36    29.84F
$$

SDZ004>011-016>023-039-040-212200-
NORTHEAST SOUTH DAKOTA

CITY           SKY/WX    TMP DP  RH WIND       PRES   REMARKS
ABERDEEN       SUNNY     79  44  28 S21G31    29.83F
WATERTOWN      SUNNY     74  43  32 S17       29.93F
SISSETON         N/A     71  42  35 S16G28    29.90F
$$

SDZ017-020-022-023-036>040-048>070-212200-
SOUTHEAST SOUTH DAKOTA

CITY           SKY/WX    TMP DP  RH WIND       PRES   REMARKS
SIOUX FALLS    SUNNY     73  45  36 S17       29.98S
HURON          SUNNY     81  40  23 S15G26    29.86F
CHAMBERLAIN    SUNNY     80  37  21 S21G32    29.84F
MITCHELL       SUNNY     81  41  24 S16G30    29.90F
YANKTON        SUNNY     79  45  29 S14G24    29.95S
$$

ABBREVIATIONS USED IN REMARKS
   TC - TEMPERATURE IN CELSIUS
  WCI - WIND CHILL INDEX
   HX - HEAT INDEX
  VSB - VISIBILITY




USA.gov is the U.S. government's official web portal to all federal, state and local government web resources and services.